Location: ??????
(38.0131°N, 23.7723°E)
Time: 05:47:50
(UTC+00:00)

CZ-2C R/B - Pass Details

Date: 17 October 2021
Orbit: 388 x 573 km, 35.0° (Epoch: 28 November)

Event Time Altitude Azimuth Distance (km) Brightness Sun altitude
Rises 17:08:22 0° 249° (WSW) 2,395 5.9 -17.3°
Reaches altitude 10° 17:10:37 10° 242° (WSW) 1,499 4.4 -17.7°
Maximum altitude 17:13:50 40° 171° (S) 610 1.4 -18.4°
Enters shadow 17:14:01 40° 160° (SSE) 614 1.3 -18.4°
